Tracking 31027 objects as of 19-Jul-2025
HD Live streaming from Space Station
objects crossing your sky now

FENGYUN 1C DEB

Track FENGYUN 1C DEB now!
10-day predictions


NORAD ID: 31024
Int'l Code: 1999-025BDS
Perigee: 776.7 km
Apogee: 884.2 km
Inclination: 99.0 °
Period: 101.4 minutes
Semi major axis: 7201 km
RCS: 0.01 m2 (small)
Launch date: May 10, 1999
Source: People's Republic of China (PRC)
Launch site: Taiyaun Space Center, China (TSC)

Note: This is SATELLITE DEBRIS
Your satellite tracking list
CZ-4C DEB
Track 1 satellite(s)




NASA's NSSDC Master Catalog

Two Line Element Set (TLE):
1 31024U 99025BDS 25199.49809690  .00000339  00000-0  17436-3 0  9995
2 31024  99.0432 109.5057 0074665 184.8118 175.2349 14.20597112946131
Source of the keplerian elements: AFSPC